Location: Asheville, NC
(35.6000°N, 82.5500°W)
Time: 20:24:42
(UTC-04:00)

Vanguard 1 Rocket - Pass Details

Date: 09 March 2018
Orbit: 653 x 4224 km, 34.3° (Epoch: 24 June)

Event Time Altitude Azimuth Distance (km) Brightness Sun altitude
Exits shadow 05:06:41 13° 228° (SW) 6,999 11.4 -21.6°
Drops below altitude 10° 05:13:09 10° 211° (SSW) 6,986 11.5 -20.3°
Sets 05:23:13 0° 188° (S) 7,322 11.9 -18.3°
